Preview of NWS' New Version of Forecast
This preview is not operational and should not be used for support decisions.

Regional Weather Roundup (RWR)

Issued by National Weather Service (NWS)

                            
000
ASUS43 KBIS 181510
RWRND 

NORTH DAKOTA REGIONAL WEATHER ROUNDUP
NATIONAL WEATHER SERVICE BISMARCK ND
1000 AM CDT THU JUL 18 2019

NOTE: "FAIR" INDICATES FEW OR NO CLOUDS BELOW 12,000 FEET WITH NO
SIGNIFICANT WEATHER AND/OR OBSTRUCTIONS TO VISIBILITY.


NDZ001>003-009>011-017-181600-
NORTHWEST NORTH DAKOTA
  
CITY           SKY/WX    TMP DP  RH WIND       PRES   REMARKS
WILLISTON      SUNNY     72  52  49 W14       29.67R                  
MINOT          SUNNY     75  59  57 SW16G28   29.59S                  
MINOT AFB      SUNNY     74  60  60 W13       29.57S                  
$$
 
NDZ018>021-031>035-040>046-181600-
SOUTHWEST NORTH DAKOTA
  
CITY           SKY/WX    TMP DP  RH WIND       PRES   REMARKS
BISMARCK       CLOUDY    69  65  86 SW7       29.68F                  
DICKINSON      MOSUNNY   72  58  61 W13       29.72R                  
GARRISON         N/A     72  57  59 W13G22    29.64S                  
HETTINGER ARPT MOSUNNY   74  59  59 NW8       29.76R                  
$$
 
NDZ004>008-012>016-024-026-027-054-181600-
NORTHEAST NORTH DAKOTA
  
CITY           SKY/WX    TMP DP  RH WIND       PRES   REMARKS
GRAND FORKS    CLOUDY    73  64  73 SW9       29.59F                  
GRND FRKS AFB  CLOUDY    73  65  76 SW8       29.60S                  
DEVILS LAKE    MOSUNNY   71  62  73 SW15      29.61F                  
$$
 
NDZ022-023-025-028>030-036>039-047>053-181600-
SOUTHEAST NORTH DAKOTA
  
CITY           SKY/WX    TMP DP  RH WIND       PRES   REMARKS
FARGO          PTSUNNY   75  64  68 SW7       29.64S                  
JAMESTOWN      SUNNY     73  66  78 W7        29.64F                  
$$